This demonstration page uses our WeatherBlox Daily Observations layout. Learn more.

Left ArrowRight Arrow

39.01783, -85.05884

Hourly Observations for September 11, 2020

Temp ( °F °C ) Dew Point ( °F °C ) Humidity (%) Winds ( mph kmh ) Pressure ( in mb ) Visibility ( mi km ) Precip ( " mm )
12:52 am 00:52 Mostly Cloudy 72 22.2 67 19.4 84 84 N 9 15 30.18 1022 10 16 0.00 0.00
1:52 am 01:52 Partly Cloudy 72 22.2 66 18.9 82 82 NNE 9 15 30.19 1022 8 13 0.00 0.00
2:24 am 02:24 Mostly Cloudy 72 22.2 66 18.9 82 82 NNE 10 17 30.19 1022 9 14 0.00 0.00
2:52 am 02:52 Cloudy 72 22.2 66 18.9 82 82 NE 10 17 30.18 1022 9 14 0.00 0.00
3:52 am 03:52 Cloudy 72 22.2 66 18.9 82 82 ENE 8 13 30.18 1022 10 16 0.00 0.00
4:52 am 04:52 Cloudy 70 21.1 64 17.8 82 82 NNE 14 22 30.18 1022 10 16 0.00 0.00
5:52 am 05:52 Cloudy 69 20.6 64 17.8 84 84 NNE 12 19 30.19 1023 10 16 0.00 0.00
6:21 am 06:21 Cloudy 69 20.6 63 17.2 81 81 NNE 14 22 30.21 1023 10 16 0.00 0.00
6:52 am 06:52 Cloudy 68 20 63 17.2 84 84 NE 12 19 30.20 1023 10 16 0.00 0.00
7:12 am 07:12 Cloudy 68 20 62 16.7 81 81 NE 13 20 30.22 1023 10 16 0.00 0.00
7:52 am 07:52 Cloudy with Light Rain 68 20 62 16.7 81 81 NE 9 15 30.22 1023 8 13 0.00 0.00
8:45 am 08:45 Cloudy 68 20 63 17.2 84 84 ENE 8 13 30.22 1023 10 16 0.00 0.00
8:52 am 08:52 Cloudy 68 20 63 17.2 84 84 ENE 12 19 30.22 1023 10 16 0.00 0.00
9:52 am 09:52 Cloudy 68 20 62 16.7 81 81 ENE 9 15 30.23 1024 10 16 0.00 0.00
10:52 am 10:52 Cloudy 68 20 62 16.7 81 81 ENE 9 15 30.23 1024 10 16 0.00 0.00
11:52 am 11:52 Cloudy 69 20.6 63 17.2 81 81 ENE 9 15 30.23 1024 10 16 0.00 0.00
12:52 pm 12:52 Cloudy 70 21.1 63 17.2 79 79 NE 12 19 30.22 1024 10 16 0.00 0.00
1:52 pm 13:52 Cloudy 70 21.1 63 17.2 79 79 ENE 10 17 30.22 1023 10 16 0.00 0.00
2:52 pm 14:52 Cloudy 71 21.7 63 17.2 76 76 NE 10 17 30.20 1023 10 16 0.00 0.00
3:35 pm 15:35 Cloudy 72 22.2 63 17.2 73 73 ENE 12 19 30.18 1022 10 16 0.00 0.00
3:52 pm 15:52 Cloudy 72 22.2 63 17.2 73 73 NE 12 19 30.18 1022 10 16 0.00 0.00
4:52 pm 16:52 Cloudy 72 22.2 63 17.2 73 73 E 12 19 30.17 1022 10 16 0.00 0.00
5:52 pm 17:52 Cloudy 71 21.7 63 17.2 76 76 NE 12 19 30.15 1021 10 16 0.00 0.00
6:52 pm 18:52 Cloudy 70 21.1 62 16.7 76 76 E 12 19 30.14 1021 10 16 0.00 0.00
7:52 pm 19:52 Cloudy 69 20.6 62 16.7 78 78 ENE 12 19 30.14 1021 10 16 0.00 0.00
8:52 pm 20:52 Cloudy 68 20 61 16.1 78 78 E 14 22 30.14 1021 10 16 0.00 0.00
9:52 pm 21:52 Cloudy 68 20 61 16.1 78 78 E 16 26 30.16 1021 10 16 0.00 0.00
10:52 pm 22:52 Cloudy 67 19.4 61 16.1 81 81 E 14 22 30.15 1021 10 16 0.00 0.00
11:52 pm 23:52 Cloudy 67 19.4 61 16.1 81 81 E 13 20 30.15 1021 10 16 0.00 0.00

Powered by AerisWeather